STARLINK-36517, 67454

Orbit data source: Space-Track

STARLINK-36517, 67454 is a payload satellite owned by SpaceX/Seattle (US) in LEO that was launched on Wed, 14 Jan 2026 UTC via an FALCON 9 launch vehicle from the Air Force Eastern Test Range (AFETR). Payload-class satellites include a variety of spacecraft equipped with specific instruments for various scientific and technological missions. These include communications satellites like Starlink; space stations such as the ISS; scientific satellites like the Hubble; Earth observation satellites from companies like Planet Labs, Umbra, and HawkEye 360; GPS; miniature CubeSats for education and research; and military/defense satellites.

Loading next visibility...
Identifier
67454, 2026-008K
Orbit
LEO
Country
Flag of USUS
Related business
Manufacturer
SpaceX/Seattle
Mission
Operational Commercial Communications
Bus & Motor
STARLINK V2MO, Unknown motor
Mass
575 kg wet, ~530 kg dry
Launch date (UTC)
2026-01-14 (5 months ago)
Launch vehicle
FALCON 9
Launch site
Air Force Eastern Test Range (AFETR)
Object type
Payload
Rocket body
Debris
Shape & HBR
Box + 2 Pan, 17.7 m
Radar Cross Section
36.964 m², Large (>1 m²)

Expand to show TLE details & history
Last TLE update: 16 hours ago

TLE from 16 hours ago
0 STARLINK-36517
1 67454U 26008K   26171.17793530  .00016256  00000-0  59892-3 0  9990
2 67454  42.9962 346.6817 0000517 331.9901  28.0923 15.27581876 25241
Epoch: 2026-06-20T04:16Z
TLE epoch observation values (Epoch: 2026-06-20T04:16:13.609Z)
Latitude
-0.00002°
Longitude
14.22869°
Altitude
482.506 km
Speed
7.626 km/s
True Right ascension
23h 06m 43s
True Declination
0° 00' 00"
Sunlit
Object was in daylight at epoch
Visualization orbit readout
Latitude
Unknown
Longitude
Unknown
Altitude
Unknown
Speed
Unknown
Apparent Right ascension
Unknown
Apparent Declination
Unknown
Sunlit
N/A
Visualization observer readout
Local Sidereal Time
07:22:35
Azimuth
Unknown
Elevation
Unknown
Doppler factor
Unknown
Orbital elements
Apogee altitude
485.344 km
Perigee altitude
484.634 km
Semi-major axis
6,863.126 km
Eccentricity
0.00005
Inclination
42.9962°
RAAN
346.6817°
Arg. of periapsis
331.9901°
True anomaly
28.09509°
Mean anomaly
28.0923°
Eccentric anomaly
28.09369°
Mean motion
3.81733 °/min
Orbital period
94.31 mins
BSTAR
0.00059892
Loading maneuver chart data...
Computing Atmospheric mass density...
Loading historical data...
Loading historical data...
Loading historical data...
Loading historical data...
Loading historical data...
Loading historical data...
Loading historical data...

Documentation

Showing up to 5 results
|